| time (UTC) | temp F | wind direction | speed MPH | gust MPH | rain 1hr in | rain 24hr in | rain mn in | humidity % | barometer mb |
| 20260905044053 | 75 | 0 | 0.0 | 1.0 | 0.01 | 0.16 | 0.01 | 95 | 1010.9 |
| 20260905043556 | 76 | 0 | 0.0 | 1.0 | 0.01 | 0.16 | 0.01 | 94 | 1010.9 |
| 20260905043100 | 76 | 0 | 0.0 | 1.0 | 0.01 | 0.16 | 0.01 | 94 | 1010.9 |
| 20260905042558 | 76 | 0 | 0.0 | 1.0 | 0.01 | 0.16 | 0.01 | 94 | 1011.0 |
| 20260905042054 | 76 | 0 | 0.0 | 0.0 | 0.01 | 0.16 | 0.01 | 93 | 1011.1 |
| 20260905041611 | 76 | 0 | 0.0 | 1.0 | 0.01 | 0.16 | 0.01 | 93 | 1011.1 |
| 20260905041053 | 76 | 0 | 0.0 | 1.0 | 0.01 | 0.16 | 0.01 | 93 | 1011.1 |
| 20260905040553 | 76 | 274 | 0.0 | 0.0 | 0.00 | 0.15 | 0.00 | 93 | 1011.1 |
| 20260905040112 | 76 | 0 | 0.0 | 0.0 | 0.00 | 0.15 | 0.00 | 92 | 1010.9 |
| 20260905035554 | 76 | 0 | 0.0 | 0.0 | 0.00 | 0.15 | 0.15 | 92 | 1011.0 |
| 20260905035053 | 76 | 0 | 0.0 | 0.0 | 0.00 | 0.15 | 0.15 | 92 | 1010.9 |
| 20260905034607 | 76 | 0 | 0.0 | 0.0 | 0.00 | 0.15 | 0.15 | 92 | 1011.0 |
| 20260905034052 | 76 | 0 | 0.0 | 0.0 | 0.00 | 0.15 | 0.15 | 92 | 1011.0 |
| 20260905033554 | 76 | 0 | 0.0 | 0.0 | 0.00 | 0.15 | 0.15 | 92 | 1011.2 |
| 20260905033108 | 76 | 0 | 0.0 | 0.0 | 0.00 | 0.15 | 0.15 | 92 | 1011.2 |
| 20260905032555 | 76 | 0 | 0.0 | 0.0 | 0.00 | 0.15 | 0.15 | 92 | 1011.2 |
| 20260905032053 | 76 | 0 | 0.0 | 0.0 | 0.00 | 0.15 | 0.15 | 92 | 1011.3 |
| 20260905031604 | 76 | 0 | 0.0 | 0.0 | 0.00 | 0.15 | 0.15 | 92 | 1011.4 |
| 20260905031053 | 76 | 0 | 0.0 | 0.0 | 0.00 | 0.15 | 0.15 | 92 | 1011.4 |
| 20260905030553 | 76 | 0 | 0.0 | 0.0 | 0.00 | 0.15 | 0.15 | 92 | 1011.5 |
| 20260905030110 | 76 | 0 | 0.0 | 0.0 | 0.00 | 0.15 | 0.15 | 92 | 1011.5 |
| 20260905025553 | 76 | 0 | 0.0 | 0.0 | 0.00 | 0.15 | 0.15 | 92 | 1011.6 |
| 20260905025053 | 76 | 0 | 0.0 | 0.0 | 0.00 | 0.15 | 0.15 | 92 | 1011.7 |
| 20260905024613 | 76 | 0 | 0.0 | 0.0 | 0.00 | 0.15 | 0.15 | 92 | 1011.6 |
| 20260905024057 | 76 | 0 | 0.0 | 0.0 | 0.00 | 0.15 | 0.15 | 92 | 1011.6 |
| 20260905023553 | 76 | 0 | 0.0 | 0.0 | 0.00 | 0.15 | 0.15 | 92 | 1011.6 |
| 20260905023102 | 76 | 0 | 0.0 | 0.0 | 0.00 | 0.15 | 0.15 | 92 | 1011.6 |
| 20260905022552 | 76 | 0 | 0.0 | 0.0 | 0.00 | 0.15 | 0.15 | 92 | 1011.6 |
| 20260905022052 | 76 | 0 | 0.0 | 0.0 | 0.00 | 0.15 | 0.15 | 92 | 1011.6 |
| 20260905021608 | 76 | 0 | 0.0 | 0.0 | 0.00 | 0.15 | 0.15 | 92 | 1011.7 |
| 20260905021054 | 76 | 0 | 0.0 | 0.0 | 0.00 | 0.15 | 0.15 | 92 | 1011.6 |
| 20260905020553 | 76 | 0 | 0.0 | 0.0 | 0.00 | 0.15 | 0.15 | 92 | 1011.6 |
| 20260905020104 | 76 | 0 | 0.0 | 0.0 | 0.00 | 0.15 | 0.15 | 92 | 1011.4 |
| 20260905015553 | 76 | 0 | 0.0 | 0.0 | 0.00 | 0.15 | 0.15 | 92 | 1011.4 |
| 20260905015053 | 76 | 0 | 0.0 | 0.0 | 0.00 | 0.15 | 0.15 | 92 | 1011.5 |
| 20260905014605 | 76 | 0 | 0.0 | 0.0 | 0.00 | 0.15 | 0.15 | 92 | 1011.4 |
| 20260905014053 | 76 | 0 | 0.0 | 0.0 | 0.00 | 0.15 | 0.15 | 92 | 1011.3 |
| 20260905013553 | 76 | 0 | 0.0 | 1.0 | 0.00 | 0.15 | 0.15 | 92 | 1011.4 |
| 20260905013120 | 76 | 0 | 0.0 | 1.0 | 0.00 | 0.15 | 0.15 | 92 | 1011.3 |
| 20260905012553 | 76 | 0 | 0.0 | 1.0 | 0.00 | 0.15 | 0.15 | 92 | 1011.4 |
| 20260905012053 | 76 | 274 | 0.0 | 0.0 | 0.00 | 0.15 | 0.15 | 92 | 1011.4 |
| 20260905011610 | 77 | 0 | 0.0 | 0.0 | 0.00 | 0.15 | 0.15 | 92 | 1011.5 |
| 20260905011053 | 77 | 0 | 0.0 | 0.0 | 0.00 | 0.15 | 0.15 | 92 | 1011.4 |
| 20260905010556 | 77 | 0 | 0.0 | 0.0 | 0.00 | 0.15 | 0.15 | 92 | 1011.4 |
| 20260905010106 | 77 | 0 | 0.0 | 0.0 | 0.00 | 0.15 | 0.15 | 92 | 1011.4 |
| 20260905005553 | 77 | 0 | 0.0 | 1.0 | 0.00 | 0.15 | 0.15 | 92 | 1011.4 |
| 20260905005053 | 77 | 0 | 0.0 | 1.0 | 0.00 | 0.15 | 0.15 | 91 | 1011.4 |
| 20260905004600 | 77 | 0 | 0.0 | 1.0 | 0.00 | 0.15 | 0.15 | 91 | 1011.5 |
| 20260905004056 | 77 | 0 | 0.0 | 0.0 | 0.00 | 0.15 | 0.15 | 91 | 1011.6 |
| 20260905003553 | 77 | 0 | 0.0 | 0.0 | 0.00 | 0.15 | 0.15 | 91 | 1011.7 |
| 20260905003102 | 77 | 0 | 0.0 | 1.0 | 0.00 | 0.15 | 0.15 | 91 | 1011.6 |
| 20260905002556 | 77 | 0 | 0.0 | 1.0 | 0.00 | 0.15 | 0.15 | 91 | 1011.4 |
| 20260905002056 | 77 | 0 | 0.0 | 1.0 | 0.00 | 0.15 | 0.15 | 90 | 1011.3 |
| 20260905001601 | 77 | 0 | 0.0 | 0.0 | 0.00 | 0.15 | 0.15 | 90 | 1011.2 |
| 20260905001052 | 78 | 0 | 0.0 | 0.0 | 0.00 | 0.15 | 0.15 | 90 | 1011.1 |
| 20260905000559 | 78 | 0 | 0.0 | 0.0 | 0.00 | 0.15 | 0.15 | 90 | 1011.1 |
| 20260905000109 | 78 | 0 | 0.0 | 0.0 | 0.00 | 0.15 | 0.15 | 89 | 1011.1 |
| 20260904235553 | 78 | 0 | 0.0 | 0.0 | 0.00 | 0.15 | 0.15 | 89 | 1011.1 |
| 20260904235100 | 78 | 0 | 0.0 | 0.0 | 0.00 | 0.15 | 0.15 | 88 | 1011.0 |
| 20260904234608 | 78 | 0 | 0.0 | 0.0 | 0.00 | 0.15 | 0.15 | 88 | 1011.0 |
| 20260904234056 | 78 | 0 | 0.0 | 0.0 | 0.00 | 0.15 | 0.15 | 88 | 1011.1 |
| 20260904233553 | 78 | 0 | 0.0 | 0.0 | 0.00 | 0.15 | 0.15 | 88 | 1011.0 |
| 20260904233109 | 78 | 0 | 0.0 | 0.0 | 0.00 | 0.15 | 0.15 | 88 | 1011.0 |
| 20260904232552 | 79 | 0 | 0.0 | 1.0 | 0.00 | 0.15 | 0.15 | 88 | 1011.0 |
| 20260904232053 | 79 | 0 | 0.0 | 1.0 | 0.00 | 0.15 | 0.15 | 88 | 1010.9 |
| 20260904231606 | 79 | 296 | 0.0 | 1.0 | 0.00 | 0.15 | 0.15 | 88 | 1011.0 |
| 20260904231052 | 79 | 0 | 0.0 | 0.0 | 0.00 | 0.15 | 0.15 | 88 | 1011.1 |
| 20260904230558 | 79 | 0 | 0.0 | 0.0 | 0.00 | 0.15 | 0.15 | 88 | 1011.1 |
| 20260904230113 | 79 | 0 | 0.0 | 1.0 | 0.00 | 0.15 | 0.15 | 87 | 1011.2 |
| 20260904225552 | 80 | 0 | 0.0 | 1.0 | 0.00 | 0.15 | 0.15 | 87 | 1011.2 |
| 20260904225054 | 80 | 297 | 0.0 | 1.0 | 0.00 | 0.15 | 0.15 | 87 | 1011.3 |
| 20260904224618 | 80 | 297 | 0.0 | 1.0 | 0.00 | 0.15 | 0.15 | 87 | 1011.5 |
| 20260904224057 | 80 | 0 | 0.0 | 1.0 | 0.00 | 0.15 | 0.15 | 86 | 1011.6 |
| 20260904223557 | 80 | 0 | 0.0 | 1.0 | 0.00 | 0.15 | 0.15 | 86 | 1011.8 |
| 20260904223111 | 80 | 299 | 0.0 | 1.0 | 0.00 | 0.15 | 0.15 | 85 | 1011.8 |
| 20260904222552 | 80 | 0 | 0.0 | 0.0 | 0.00 | 0.15 | 0.15 | 84 | 1011.9 |
| 20260904222052 | 81 | 0 | 0.0 | 0.0 | 0.00 | 0.15 | 0.15 | 84 | 1012.0 |
| 20260904221628 | 81 | 0 | 0.0 | 0.0 | 0.00 | 0.15 | 0.15 | 83 | 1012.0 |
| 20260904221056 | 81 | 0 | 0.0 | 0.0 | 0.00 | 0.15 | 0.15 | 83 | 1011.8 |
| 20260904220553 | 81 | 0 | 0.0 | 1.0 | 0.00 | 0.15 | 0.15 | 82 | 1011.7 |
| 20260904220108 | 81 | 0 | 0.0 | 1.0 | 0.00 | 0.15 | 0.15 | 82 | 1011.7 |
| 20260904215559 | 81 | 298 | 0.0 | 0.0 | 0.00 | 0.15 | 0.15 | 82 | 1011.7 |
| 20260904215058 | 81 | 0 | 0.0 | 1.0 | 0.00 | 0.15 | 0.15 | 82 | 1011.7 |
| 20260904214607 | 82 | 0 | 0.0 | 1.0 | 0.00 | 0.15 | 0.15 | 82 | 1011.9 |
| 20260904214055 | 82 | 299 | 0.0 | 1.0 | 0.00 | 0.15 | 0.15 | 81 | 1011.9 |
| 20260904213555 | 82 | 323 | 0.0 | 0.0 | 0.00 | 0.15 | 0.15 | 81 | 1011.9 |
| 20260904213102 | 83 | 0 | 0.0 | 1.0 | 0.00 | 0.15 | 0.15 | 80 | 1011.9 |
| 20260904212555 | 83 | 0 | 0.0 | 2.0 | 0.00 | 0.15 | 0.15 | 77 | 1011.9 |
| 20260904212056 | 83 | 0 | 0.0 | 2.0 | 0.00 | 0.15 | 0.15 | 78 | 1012.1 |
| 20260904211559 | 83 | 0 | 0.0 | 2.0 | 0.00 | 0.15 | 0.15 | 78 | 1012.1 |
| 20260904211055 | 83 | 0 | 1.0 | 2.0 | 0.00 | 0.15 | 0.15 | 77 | 1012.3 |
| 20260904210556 | 83 | 322 | 1.0 | 1.0 | 0.00 | 0.15 | 0.15 | 78 | 1012.0 |
| 20260904210116 | 83 | 322 | 0.0 | 1.0 | 0.00 | 0.15 | 0.15 | 79 | 1011.7 |
| 20260904205556 | 83 | 0 | 0.0 | 1.0 | 0.00 | 0.15 | 0.15 | 78 | 1011.6 |
| 20260904205055 | 83 | 322 | 0.0 | 0.0 | 0.00 | 0.15 | 0.15 | 78 | 1011.8 |
| 20260904204609 | 84 | 0 | 0.0 | 2.0 | 0.00 | 0.15 | 0.15 | 78 | 1011.8 |
| 20260904204058 | 84 | 0 | 0.0 | 2.0 | 0.00 | 0.15 | 0.15 | 78 | 1011.9 |
| 20260904204029 | 84 | 324 | 0.0 | 0.0 | 0.00 | 0.15 | 0.15 | 78 | 1011.9 |
| 20260904170552 | 83 | 284 | 1.0 | 5.0 | 0.00 | 0.15 | 0.15 | 76 | 1013.1 |
| 20260904165550 | 82 | 322 | 0.0 | 4.0 | 0.00 | 0.15 | 0.15 | 77 | 1013.2 |
| 20260904165053 | 82 | 328 | 1.0 | 4.0 | 0.00 | 0.15 | 0.15 | 77 | 1013.3 |
| 20260904164607 | 82 | 0 | 2.0 | 4.0 | 0.00 | 0.15 | 0.15 | 75 | 1013.3 |
| 20260904164051 | 82 | 344 | 0.0 | 4.0 | 0.00 | 0.15 | 0.15 | 78 | 1013.4 |
| 20260904163551 | 82 | 0 | 0.0 | 4.0 | 0.00 | 0.15 | 0.15 | 78 | 1013.3 |
| 20260904163102 | 82 | 347 | 1.0 | 4.0 | 0.00 | 0.15 | 0.15 | 78 | 1013.4 |
| 20260904162551 | 82 | 346 | 1.0 | 4.0 | 0.00 | 0.15 | 0.15 | 78 | 1013.4 |
| 20260904162053 | 82 | 0 | 0.0 | 3.0 | 0.00 | 0.15 | 0.15 | 79 | 1013.4 |
| 20260904161611 | 82 | 49 | 1.0 | 3.0 | 0.00 | 0.15 | 0.15 | 79 | 1013.4 |
| 20260904161053 | 82 | 0 | 0.0 | 4.0 | 0.00 | 0.15 | 0.15 | 79 | 1013.4 |
| 20260904160553 | 82 | 0 | 1.0 | 4.0 | 0.00 | 0.15 | 0.15 | 78 | 1013.5 |
| 20260904155555 | 82 | 65 | 1.0 | 4.0 | 0.00 | 0.15 | 0.15 | 79 | 1013.5 |
| 20260904155055 | 82 | 6 | 1.0 | 4.0 | 0.00 | 0.15 | 0.15 | 79 | 1013.5 |
| 20260904154610 | 82 | 316 | 1.0 | 5.0 | 0.00 | 0.15 | 0.15 | 78 | 1013.5 |
| 20260904154056 | 82 | 39 | 1.0 | 5.0 | 0.00 | 0.15 | 0.15 | 79 | 1013.6 |
| 20260904153554 | 82 | 283 | 0.0 | 6.0 | 0.00 | 0.15 | 0.15 | 79 | 1013.6 |
| 20260904153115 | 82 | 326 | 0.0 | 6.0 | 0.00 | 0.15 | 0.15 | 80 | 1013.6 |
| 20260904152554 | 82 | 311 | 0.0 | 3.0 | 0.00 | 0.15 | 0.15 | 79 | 1013.6 |
| 20260904152053 | 82 | 63 | 1.0 | 3.0 | 0.00 | 0.15 | 0.15 | 80 | 1013.6 |
| 20260904151601 | 82 | 0 | 0.0 | 5.0 | 0.00 | 0.15 | 0.15 | 81 | 1013.5 |
| 20260904151054 | 81 | 330 | 0.0 | 5.0 | 0.00 | 0.15 | 0.15 | 81 | 1013.5 |
| 20260904150554 | 81 | 34 | 1.0 | 5.0 | 0.00 | 0.15 | 0.15 | 81 | 1013.5 |
| 20260904150104 | 81 | 8 | 1.0 | 5.0 | 0.00 | 0.15 | 0.15 | 81 | 1013.6 |
| 20260904145554 | 81 | 342 | 2.0 | 5.0 | 0.00 | 0.15 | 0.15 | 81 | 1013.5 |
| 20260904145057 | 81 | 4 | 0.0 | 4.0 | 0.00 | 0.15 | 0.15 | 82 | 1013.6 |
| 20260904144614 | 80 | 0 | 2.0 | 4.0 | 0.00 | 0.15 | 0.15 | 82 | 1013.6 |
| 20260904144054 | 80 | 352 | 0.0 | 4.0 | 0.00 | 0.15 | 0.15 | 83 | 1013.6 |
| 20260904143554 | 80 | 324 | 1.0 | 4.0 | 0.00 | 0.15 | 0.15 | 84 | 1013.5 |
| 20260904143122 | 79 | 8 | 1.0 | 3.0 | 0.00 | 0.15 | 0.15 | 84 | 1013.6 |
| 20260904142554 | 79 | 300 | 1.0 | 2.0 | 0.00 | 0.15 | 0.15 | 85 | 1013.4 |
| 20260904142055 | 79 | 319 | 1.0 | 3.0 | 0.00 | 0.15 | 0.15 | 85 | 1013.4 |
| 20260904141606 | 78 | 300 | 1.0 | 4.0 | 0.00 | 0.15 | 0.15 | 86 | 1013.5 |
| 20260904141053 | 78 | 299 | 0.0 | 9.0 | 0.00 | 0.15 | 0.15 | 87 | 1013.5 |
| 20260904140557 | 78 | 322 | 1.0 | 9.0 | 0.00 | 0.15 | 0.15 | 87 | 1013.5 |
| 20260904140107 | 77 | 42 | 1.0 | 7.0 | 0.00 | 0.15 | 0.15 | 87 | 1013.5 |
| 20260904135554 | 77 | 341 | 1.0 | 7.0 | 0.00 | 0.15 | 0.15 | 88 | 1013.4 |
| 20260904135054 | 77 | 70 | 1.0 | 7.0 | 0.00 | 0.15 | 0.15 | 89 | 1013.4 |
| 20260904134604 | 77 | 328 | 2.0 | 7.0 | 0.00 | 0.15 | 0.15 | 89 | 1013.4 |
| 20260904134054 | 76 | 39 | 1.0 | 6.0 | 0.00 | 0.15 | 0.15 | 90 | 1013.5 |
| 20260904133554 | 76 | 52 | 1.0 | 6.0 | 0.00 | 0.15 | 0.15 | 91 | 1013.3 |
| 20260904133112 | 76 | 0 | 1.0 | 4.0 | 0.00 | 0.15 | 0.15 | 91 | 1013.3 |
| 20260904132555 | 75 | 321 | 1.0 | 3.0 | 0.00 | 0.15 | 0.15 | 91 | 1013.3 |
| 20260904132054 | 75 | 316 | 1.0 | 3.0 | 0.00 | 0.15 | 0.15 | 93 | 1013.4 |
| 20260904131605 | 75 | 329 | 0.0 | 4.0 | 0.00 | 0.15 | 0.15 | 93 | 1013.4 |
| 20260904131059 | 75 | 322 | 1.0 | 5.0 | 0.00 | 0.15 | 0.15 | 94 | 1013.3 |
| 20260904130553 | 74 | 321 | 1.0 | 5.0 | 0.00 | 0.15 | 0.15 | 94 | 1013.3 |
| 20260904130109 | 74 | 4 | 1.0 | 5.0 | 0.00 | 0.15 | 0.15 | 95 | 1013.3 |
| 20260904125555 | 74 | 311 | 1.0 | 4.0 | 0.00 | 0.15 | 0.15 | 96 | 1013.4 |
| 20260904125059 | 73 | 260 | 0.0 | 4.0 | 0.00 | 0.15 | 0.15 | 96 | 1013.4 |
| 20260904124606 | 73 | 255 | 1.0 | 4.0 | 0.00 | 0.15 | 0.15 | 97 | 1013.3 |
| 20260904124059 | 73 | 0 | 1.0 | 4.0 | 0.00 | 0.15 | 0.15 | 97 | 1013.3 |
| 20260904123551 | 73 | 320 | 0.0 | 4.0 | 0.00 | 0.15 | 0.15 | 97 | 1013.4 |
| 20260904123106 | 73 | 0 | 1.0 | 4.0 | 0.00 | 0.15 | 0.15 | 98 | 1013.3 |
| 20260904122552 | 73 | 321 | 1.0 | 4.0 | 0.00 | 0.15 | 0.15 | 98 | 1013.4 |
| 20260904122057 | 73 | 305 | 0.0 | 2.0 | 0.00 | 0.15 | 0.15 | 98 | 1013.5 |
| 20260904121607 | 73 | 309 | 0.0 | 2.0 | 0.00 | 0.15 | 0.15 | 98 | 1013.4 |
| 20260904121053 | 72 | 236 | 0.0 | 1.0 | 0.00 | 0.15 | 0.15 | 98 | 1013.4 |
| 20260904120556 | 72 | 0 | 0.0 | 1.0 | 0.00 | 0.15 | 0.15 | 98 | 1013.3 |
| 20260904120107 | 72 | 0 | 0.0 | 1.0 | 0.00 | 0.15 | 0.15 | 98 | 1013.2 |
| 20260904115553 | 72 | 0 | 0.0 | 1.0 | 0.00 | 0.15 | 0.15 | 98 | 1013.3 |
| 20260904115053 | 72 | 0 | 0.0 | 1.0 | 0.00 | 0.15 | 0.15 | 98 | 1013.4 |
| 20260904114609 | 72 | 0 | 0.0 | 1.0 | 0.00 | 0.15 | 0.15 | 98 | 1013.3 |
| 20260904114053 | 72 | 0 | 0.0 | 0.0 | 0.00 | 0.15 | 0.15 | 98 | 1013.2 |
| 20260904113553 | 72 | 0 | 0.0 | 0.0 | 0.00 | 0.15 | 0.15 | 98 | 1013.3 |
| 20260904113109 | 72 | 0 | 0.0 | 1.0 | 0.00 | 0.15 | 0.15 | 98 | 1013.1 |
| 20260904112551 | 72 | 0 | 0.0 | 1.0 | 0.00 | 0.15 | 0.15 | 98 | 1012.9 |
| 20260904112051 | 72 | 248 | 0.0 | 1.0 | 0.00 | 0.15 | 0.15 | 98 | 1012.8 |
| 20260904111610 | 72 | 0 | 0.0 | 1.0 | 0.00 | 0.15 | 0.15 | 98 | 1013.0 |
| 20260904111054 | 72 | 0 | 0.0 | 2.0 | 0.00 | 0.15 | 0.15 | 98 | 1013.3 |
| 20260904110555 | 72 | 0 | 0.0 | 2.0 | 0.00 | 0.15 | 0.15 | 98 | 1013.4 |
| 20260904110117 | 72 | 0 | 0.0 | 2.0 | 0.00 | 0.15 | 0.15 | 98 | 1013.6 |
| 20260904105554 | 72 | 315 | 0.0 | 3.0 | 0.00 | 0.15 | 0.15 | 98 | 1013.4 |
| 20260904105053 | 72 | 315 | 1.0 | 3.0 | 0.00 | 0.15 | 0.15 | 98 | 1013.3 |
| 20260904104600 | 72 | 300 | 0.0 | 1.0 | 0.00 | 0.15 | 0.15 | 98 | 1013.3 |
| 20260904104051 | 72 | 0 | 0.0 | 1.0 | 0.00 | 0.15 | 0.15 | 98 | 1013.1 |
| 20260904103554 | 72 | 0 | 0.0 | 0.0 | 0.00 | 0.15 | 0.15 | 97 | 1012.8 |
| 20260904103105 | 72 | 0 | 0.0 | 0.0 | 0.00 | 0.15 | 0.15 | 97 | 1012.7 |
| 20260904102555 | 72 | 0 | 0.0 | 0.0 | 0.00 | 0.15 | 0.15 | 97 | 1012.5 |
| 20260904102054 | 72 | 0 | 0.0 | 0.0 | 0.00 | 0.15 | 0.15 | 97 | 1012.5 |
| 20260904101607 | 72 | 0 | 0.0 | 0.0 | 0.00 | 0.15 | 0.15 | 97 | 1012.5 |
| 20260904101056 | 72 | 0 | 0.0 | 0.0 | 0.00 | 0.15 | 0.15 | 97 | 1012.3 |
| 20260904100553 | 72 | 0 | 0.0 | 1.0 | 0.00 | 0.15 | 0.15 | 97 | 1012.3 |
| 20260904100107 | 72 | 0 | 0.0 | 1.0 | 0.00 | 0.15 | 0.15 | 97 | 1012.4 |
| 20260904095554 | 72 | 289 | 0.0 | 1.0 | 0.00 | 0.22 | 0.15 | 97 | 1012.5 |
| 20260904095054 | 72 | 0 | 0.0 | 1.0 | 0.00 | 0.22 | 0.15 | 97 | 1012.3 |
| 20260904094607 | 72 | 289 | 0.0 | 0.0 | 0.00 | 0.22 | 0.15 | 97 | 1012.2 |
| 20260904094054 | 72 | 0 | 0.0 | 1.0 | 0.00 | 0.22 | 0.15 | 97 | 1012.3 |
| 20260904093554 | 72 | 0 | 0.0 | 1.0 | 0.00 | 0.22 | 0.15 | 97 | 1012.4 |
| 20260904093107 | 72 | 289 | 0.0 | 1.0 | 0.00 | 0.22 | 0.15 | 97 | 1012.7 |
| 20260904092554 | 72 | 0 | 0.0 | 1.0 | 0.00 | 0.22 | 0.15 | 97 | 1012.8 |
| 20260904092057 | 72 | 0 | 0.0 | 1.0 | 0.00 | 0.22 | 0.15 | 97 | 1012.7 |
| 20260904091605 | 72 | 0 | 0.0 | 1.0 | 0.00 | 0.22 | 0.15 | 97 | 1012.7 |
| 20260904091054 | 72 | 289 | 0.0 | 1.0 | 0.00 | 0.22 | 0.15 | 97 | 1012.8 |
| 20260904090553 | 72 | 289 | 1.0 | 1.0 | 0.00 | 0.22 | 0.15 | 97 | 1012.7 |
| 20260904090059 | 72 | 0 | 0.0 | 1.0 | 0.00 | 0.22 | 0.15 | 97 | 1012.6 |
| 20260904085550 | 72 | 0 | 0.0 | 0.0 | 0.00 | 0.22 | 0.15 | 97 | 1012.6 |
| 20260904085050 | 72 | 0 | 0.0 | 0.0 | 0.00 | 0.22 | 0.15 | 97 | 1012.5 |
| 20260904084605 | 72 | 0 | 0.0 | 0.0 | 0.00 | 0.22 | 0.15 | 97 | 1012.8 |
| 20260904084055 | 72 | 0 | 0.0 | 0.0 | 0.00 | 0.22 | 0.15 | 97 | 1012.7 |
| 20260904083555 | 72 | 0 | 0.0 | 0.0 | 0.00 | 0.22 | 0.15 | 97 | 1012.7 |
| 20260904083104 | 72 | 0 | 0.0 | 0.0 | 0.00 | 0.22 | 0.15 | 97 | 1012.7 |
| 20260904082554 | 72 | 0 | 0.0 | 0.0 | 0.00 | 0.22 | 0.15 | 97 | 1012.8 |
| 20260904082054 | 72 | 0 | 0.0 | 0.0 | 0.00 | 0.22 | 0.15 | 97 | 1012.8 |
| 20260904081606 | 73 | 0 | 0.0 | 0.0 | 0.00 | 0.22 | 0.15 | 97 | 1012.9 |
| 20260904081053 | 73 | 0 | 0.0 | 1.0 | 0.00 | 0.22 | 0.15 | 97 | 1013.0 |
| 20260904080557 | 73 | 0 | 0.0 | 1.0 | 0.00 | 0.22 | 0.15 | 97 | 1012.8 |
| 20260904080120 | 73 | 247 | 0.0 | 1.0 | 0.00 | 0.22 | 0.15 | 97 | 1012.9 |
| 20260904075557 | 73 | 0 | 0.0 | 1.0 | 0.00 | 0.23 | 0.15 | 97 | 1013.1 |
| 20260904075051 | 73 | 248 | 0.0 | 1.0 | 0.00 | 0.23 | 0.15 | 97 | 1013.0 |
| 20260904074606 | 73 | 0 | 0.0 | 1.0 | 0.01 | 0.23 | 0.15 | 97 | 1013.1 |
| 20260904074055 | 73 | 0 | 0.0 | 1.0 | 0.01 | 0.23 | 0.15 | 97 | 1013.2 |
| 20260904073554 | 73 | 0 | 0.0 | 0.0 | 0.01 | 0.23 | 0.15 | 97 | 1013.2 |
| 20260904073111 | 73 | 205 | 0.0 | 0.0 | 0.02 | 0.23 | 0.15 | 97 | 1013.4 |
| 20260904072553 | 73 | 0 | 0.0 | 0.0 | 0.02 | 0.23 | 0.15 | 97 | 1013.3 |
| 20260904072057 | 73 | 205 | 0.0 | 0.0 | 0.04 | 0.23 | 0.15 | 96 | 1013.2 |
| 20260904071603 | 73 | 205 | 0.0 | 0.0 | 0.06 | 0.23 | 0.15 | 96 | 1013.3 |
| 20260904071050 | 73 | 0 | 0.0 | 0.0 | 0.08 | 0.23 | 0.15 | 96 | 1013.2 |
| 20260904070554 | 73 | 0 | 0.0 | 0.0 | 0.10 | 0.23 | 0.15 | 96 | 1013.3 |
| 20260904065553 | 73 | 0 | 0.0 | 0.0 | 0.13 | 0.23 | 0.15 | 96 | 1013.6 |
| 20260904065053 | 73 | 0 | 0.0 | 0.0 | 0.14 | 0.23 | 0.15 | 96 | 1013.6 |
| 20260904064611 | 74 | 0 | 0.0 | 1.0 | 0.14 | 0.22 | 0.14 | 96 | 1013.6 |
| 20260904064054 | 74 | 0 | 0.0 | 1.0 | 0.14 | 0.22 | 0.14 | 96 | 1013.3 |
| 20260904063558 | 74 | 204 | 0.0 | 1.0 | 0.14 | 0.22 | 0.14 | 96 | 1013.1 |
| 20260904063115 | 74 | 0 | 0.0 | 2.0 | 0.13 | 0.21 | 0.13 | 96 | 1013.1 |
| 20260904062553 | 74 | 0 | 0.0 | 2.0 | 0.13 | 0.21 | 0.13 | 95 | 1013.0 |
| 20260904062053 | 74 | 0 | 0.0 | 2.0 | 0.11 | 0.19 | 0.11 | 95 | 1012.7 |
| 20260904061558 | 75 | 0 | 0.0 | 2.0 | 0.09 | 0.17 | 0.09 | 95 | 1012.5 |
| 20260904061056 | 75 | 0 | 0.0 | 1.0 | 0.07 | 0.15 | 0.07 | 94 | 1012.7 |
| 20260904060552 | 75 | 166 | 0.0 | 1.0 | 0.05 | 0.13 | 0.05 | 94 | 1012.7 |
| 20260904060110 | 76 | 0 | 0.0 | 1.0 | 0.04 | 0.12 | 0.04 | 94 | 1012.7 |
| 20260904055550 | 76 | 0 | 0.0 | 2.0 | 0.02 | 0.10 | 0.02 | 93 | 1012.5 |
| 20260904055054 | 77 | 169 | 0.0 | 2.0 | 0.01 | 0.09 | 0.01 | 93 | 1012.9 |
| 20260904054604 | 77 | 240 | 0.0 | 2.0 | 0.00 | 0.08 | 0.00 | 93 | 1013.1 |
| 20260904054052 | 77 | 325 | 1.0 | 2.0 | 0.00 | 0.08 | 0.00 | 94 | 1013.3 |
| 20260904053553 | 77 | 0 | 0.0 | 1.0 | 0.00 | 0.08 | 0.00 | 94 | 1013.5 |
| 20260904053132 | 77 | 0 | 1.0 | 1.0 | 0.00 | 0.08 | 0.00 | 94 | 1013.4 |
| 20260904052555 | 77 | 0 | 0.0 | 1.0 | 0.00 | 0.08 | 0.00 | 95 | 1013.5 |
| 20260904052055 | 77 | 291 | 0.0 | 2.0 | 0.00 | 0.08 | 0.00 | 95 | 1013.3 |
| 20260904051608 | 77 | 0 | 1.0 | 2.0 | 0.00 | 0.08 | 0.00 | 96 | 1012.8 |
| 20260904051054 | 77 | 0 | 0.0 | 1.0 | 0.00 | 0.08 | 0.00 | 97 | 1012.8 |
| 20260904050550 | 77 | 241 | 0.0 | 5.0 | 0.00 | 0.08 | 0.00 | 97 | 1013.2 |
| 20260904050108 | 77 | 0 | 0.0 | 5.0 | 0.00 | 0.08 | 0.00 | 97 | 1013.4 |
| 20260904045553 | 77 | 335 | 1.0 | 2.0 | 0.00 | 0.08 | 0.00 | 97 | 1013.3 |
| 20260904045050 | 76 | 319 | 0.0 | 2.0 | 0.00 | 0.08 | 0.00 | 97 | 1012.9 |
| 20260904044615 | 76 | 0 | 0.0 | 0.0 | 0.00 | 0.08 | 0.00 | 96 | 1012.9 |